Regional Weather Roundup
Issued by NWS State College, PA

Home | Current Version | Previous Version | Text Only | Print | Product List | Glossary Off
Versions: 1 2 3 4 5 6 7 8 9 10 11 12 13 14 15 16 17 18 19 20 21 22 23 24 25 26 27 28 29 30 31 32 33 34 35 36 37 38 39 40 41 42 43 44 45 46 47 48 49 50

000
ASUS41 KCTP 070203
RWRCTP

REGIONAL WEATHER ROUNDUP
NATIONAL WEATHER SERVICE STATE COLLEGE PA
1000 PM EDT WED MAY 06 2015

Note: "fair" indicates few or no clouds below 12,000 feet with no
significant weather and/or obstructions to visibility.

* = STATION THAT DOES NOT REPORT PRECIPITATION /E.G. RAIN...SNOW...ETC/
    THUNDER OR FOG.

PAZ002>004-007>009-013>016-020>023-029>032-070300-
WESTERN PENNSYLVANIA

CITY           SKY/WX    TMP DP  RH WIND       PRES   REMARKS
ERIE           CLEAR     60  53  77 NE3       30.18R
MEADVILLE      CLEAR     64  55  72 CALM      30.18R
FRANKLIN*      CLEAR     64  54  68 CALM      30.20R
NEW CASTLE     FAIR      67  60  78 CALM      30.18R
BEAVER COUNTY  NOT AVBL
BUTLER*        PTCLDY    64  59  82 E6        30.20R
PITTSBURGH INT MOCLDY    73  59  61 N6        30.16R
PITTSBURGH     CLOUDY    68  57  68 E6        30.17R
INDIANA*       PTCLDY    64  61  88 E6        30.23R
LATROBE        CLEAR     66  64  94 CALM      30.19R
WASHINGTON CO* PTCLDY    70  55  60 N6        30.18S
$$

PAZ004>006-010>012-017>019-024>028-033>037-041-042-045-046-049>053-070300-
CENTRAL PENNSYLVANIA

CITY           SKY/WX    TMP DP  RH WIND       PRES   REMARKS
BRADFORD       FOG       53  52  96 CALM      30.22S VSB 1/2
DUBOIS         MOCLDY    61  56  83 E7        30.21R
CLEARFIELD     MOCLDY    57  55  93 E7        30.23R
JOHNSTOWN      PTCLDY    59  58  96 E5        30.23R FOG
ALTOONA        CLEAR     59  57  93 NE3       30.24R
STATE COLLEGE  NOT AVBL
WILLIAMSPORT   CLOUDY    57  55  93 CALM      30.23R
SELINSGROVE    CLOUDY    59  56  89 CALM      30.24S
FT INDIANTOWN  NOT AVBL
CAPITAL CITY   CLOUDY    59  53  80 E6        30.23S
HARRISBURG     CLOUDY    59  54  83 CALM      30.23R
YORK           MOCLDY    60  52  74 NE3       30.22R
$$

PAZ038>040-043-044-047-048-054-055-060>062-067>071-070300-
EASTERN PENNSYLVANIA

CITY           SKY/WX    TMP DP  RH WIND       PRES   REMARKS
SCRANTON       CLEAR     58  50  75 CALM      30.23R
MOUNT POCONO   CLEAR     49  45  86 CALM      30.25R
ALLENTOWN      CLOUDY    61  49  64 CALM      30.23S
QUAKERTOWN*    PTCLDY    55  48  76 CALM      30.25R
READING        CLOUDY    59  49  69 CALM      30.22R
LANCASTER      CLOUDY    59  53  80 E6        30.22R
COATESVILLE    MOCLDY    59  48  67 CALM      30.25R
POTTSTOWN      CLEAR     56  49  77 CALM      30.25R
BLUE BELL      CLEAR     57  52  82 CALM      30.24R
DOYLESTOWN     MOCLDY    57  49  74 CALM      30.24R
WILLOW GROVE   NOT AVBL
NORTH PHILA    PTCLDY    61  47  59 E6        30.26R
PHILADELPHIA   MOCLDY    63  50  62 E7        30.24R
$$



USA.gov is the U.S. government's official web portal to all federal, state and local government web resources and services.